Regional Weather Roundup
Issued by NWS

Home | Current Version | Previous Version | Text Only | Print | Product List | Glossary Off
Versions: 1 2 3 4 5 6 7 8 9 10 11 12 13 14 15 16 17 18 19 20 21 22 23 24 25 26 27 28 29 30 31 32 33 34 35 36 37 38 39 40 41 42 43 44 45 46 47 48 49 50

840
ASUS43 KFSD 041002
RWRSD

WEATHER ROUNDUP FOR SOUTH DAKOTA
NATIONAL WEATHER SERVICE SIOUX FALLS SD
500 AM CDT WED MAY 04 2016

NOTE: "FAIR" INDICATES FEW OR NO CLOUDS BELOW 12,000 FEET WITH NO
SIGNIFICANT WEATHER AND/OR OBSTRUCTIONS TO VISIBILITY.


SDZ001>005-009-010-012>017-041100-
NORTHWEST AND NORTH CENTRAL SOUTH DAKOTA

CITY           SKY/WX    TMP DP  RH WIND       PRES   REMARKS
BUFFALO          N/A     54  36  50 CALM      30.07R
FAITH            N/A     46  34  62 SE3       30.11S
MOBRIDGE       CLEAR     40  33  76 NE3       30.08R
$$

SDZ012>016-024>037-041>051-057-063-072>074-041100-
SOUTHWEST AND SOUTH CENTRAL SOUTH DAKOTA

CITY           SKY/WX    TMP DP  RH WIND       PRES   REMARKS
RAPID CTY ARPT CLEAR     47  37  68 NW10      30.13S
PIERRE         CLEAR     44  30  57 N5        30.10R
CUSTER         CLEAR     39  30  70 NW5       30.21F
ELLSWORTH AFB  CLEAR     43  37  80 W7        30.12S
PHILIP         CLEAR     38  37  97 W5        30.12R
PINE RIDGE     CLEAR     36  33  89 NE3       30.14R
WINNER         FAIR      43  37  79 W6        30.10R
$$

SDZ004>011-016>023-039-040-041100-
NORTHEAST SOUTH DAKOTA

CITY           SKY/WX    TMP DP  RH WIND       PRES   REMARKS
ABERDEEN       CLEAR     37  30  75 NW9       30.07R
WATERTOWN      CLEAR     38  30  73 N7        30.02R
BROOKINGS      CLEAR     41  32  70 N3        30.00
SISSETON         N/A     41  31  67 NW10      30.03R
$$

SDZ017-020-022-023-036>040-048>070-041100-
SOUTHEAST SOUTH DAKOTA

CITY           SKY/WX    TMP DP  RH WIND       PRES   REMARKS
SIOUX FALLS    CLEAR     44  33  65 N9        30.00R
HURON          CLEAR     37  32  82 NW9       30.05R
MITCHELL       CLEAR     42  36  79 NW9       30.05R
YANKTON        CLEAR     45  34  65 NW9       30.01R
$$

ABBREVIATIONS USED IN REMARKS
   TC - TEMPERATURE IN CELSIUS
  WCI - WIND CHILL INDEX
   HX - HEAT INDEX
  VSB - VISIBILITY





USA.gov is the U.S. government's official web portal to all federal, state and local government web resources and services.